N0HOT Weather Reports


time (UTC)temp
C
wind
direction
speed
KPH
gust
KPH
rain 1hr
cm
rain 24hr
cm
rain mn
cm
humidity
%
barometer
mb
20260504010841 20 228 1.6 1.6 0.00 0.00 0.00 24 1004.2
20260504010337 20 198 0.0 0.0 0.00 0.00 0.00 23 1003.8
20260504005833 20 187 0.0 1.6 0.00 0.00 0.00 23 1003.8
20260504005330 20 198 3.2 3.2 0.00 0.00 0.00 22 1003.5
20260504004828 21 189 1.6 3.2 0.00 0.00 0.00 23 1003.8
20260504004326 21 177 3.2 4.8 0.00 0.00 0.00 22 1003.5
20260504003821 21 240 3.2 6.4 0.00 0.00 0.00 21 1003.8
20260504003319 21 173 3.2 4.8 0.00 0.00 0.00 22 1003.8
20260504002815 21 199 1.6 3.2 0.00 0.00 0.00 22 1003.8
20260504002312 21 179 4.8 4.8 0.00 0.00 0.00 21 1003.5
20260504001810 21 212 6.4 11.3 0.00 0.00 0.00 22 1003.5
20260504001307 21 190 6.4 6.4 0.00 0.00 0.00 22 1003.5
20260504000804 22 140 3.2 4.8 0.00 0.00 0.00 21 1003.8
20260504000301 22 195 3.2 4.8 0.00 0.00 0.00 21 1003.5
20260503235759 22 217 6.4 11.3 0.00 0.00 0.00 20 1003.5
20260503235256 22 261 9.7 11.3 0.00 0.00 0.00 20 1003.5
20260503234753 22 277 3.2 3.2 0.00 0.00 0.00 22 1003.8
20260503234251 22 189 6.4 6.4 0.00 0.00 0.00 22 1003.5
20260503233748 22 200 3.2 4.8 0.00 0.00 0.00 22 1003.5
20260503233244 22 224 3.2 4.8 0.00 0.00 0.00 23 1003.5
20260503232741 22 150 8.0 11.3 0.00 0.00 0.00 23 1003.5
20260503232238 23 244 3.2 4.8 0.00 0.00 0.00 24 1003.5
20260503231736 23 107 3.2 4.8 0.00 0.00 0.00 25 1003.5
20260503231232 23 43 0.0 0.0 0.00 0.00 0.00 23 1003.5
20260503230723 23 212 1.6 3.2 0.00 0.00 0.00 24 1003.5
20260503230221 23 153 6.4 6.4 0.00 0.00 0.00 23 1003.5
20260503225717 23 190 3.2 3.2 0.00 0.00 0.00 22 1003.5
20260503225218 23 219 6.4 6.4 0.00 0.00 0.00 21 1003.5
20260503224715 23 186 3.2 4.8 0.00 0.00 0.00 21 1003.2
20260503224213 23 205 3.2 4.8 0.00 0.00 0.00 22 1003.2
20260503223710 23 215 8.0 9.7 0.00 0.00 0.00 20 1003.2
20260503223207 23 138 4.8 6.4 0.00 0.00 0.00 20 1003.2
20260503222704 23 206 4.8 4.8 0.00 0.00 0.00 21 1003.2
20260503222201 23 189 6.4 11.3 0.00 0.00 0.00 22 1003.5
20260503221700 23 175 8.0 9.7 0.00 0.00 0.00 20 1003.2
20260503221157 23 191 4.8 6.4 0.00 0.00 0.00 21 1003.2
20260503220654 23 187 8.0 11.3 0.00 0.00 0.00 19 1003.2
20260503220150 23 159 8.0 14.5 0.00 0.00 0.00 20 1003.5
20260503215647 23 317 3.2 11.3 0.00 0.00 0.00 21 1003.5
20260503215143 23 147 6.4 9.7 0.00 0.00 0.00 21 1003.5
20260503214642 23 200 9.7 12.9 0.00 0.00 0.00 20 1003.2
20260503214138 24 357 11.3 14.5 0.00 0.00 0.00 20 1003.5
20260503213632 24 169 4.8 6.4 0.00 0.00 0.00 21 1003.2
20260503213128 24 187 6.4 9.7 0.00 0.00 0.00 19 1003.5
20260503212626 24 186 14.5 16.1 0.00 0.00 0.00 19 1003.2
20260503212123 25 189 6.4 11.3 0.00 0.00 0.00 20 1003.5
20260503211621 25 248 9.7 12.9 0.00 0.00 0.00 20 1003.5
20260503211116 24 260 8.0 11.3 0.00 0.00 0.00 19 1003.5
20260503210613 24 148 1.6 1.6 0.00 0.00 0.00 21 1003.5
20260503210109 24 149 6.4 6.4 0.00 0.00 0.00 19 1003.5
20260503205605 24 166 8.0 9.7 0.00 0.00 0.00 19 1003.5
20260503205101 24 169 6.4 9.7 0.00 0.00 0.00 20 1003.5
20260503204558 24 193 6.4 9.7 0.00 0.00 0.00 19 1003.8
20260503204055 24 197 6.4 9.7 0.00 0.00 0.00 22 1003.8
20260503203552 24 212 6.4 9.7 0.00 0.00 0.00 22 1003.8
20260503203050 24 265 6.4 6.4 0.00 0.00 0.00 20 1003.5
20260503202548 24 186 6.4 6.4 0.00 0.00 0.00 24 1003.8
20260503202045 24 238 9.7 11.3 0.00 0.00 0.00 22 1004.2
20260503201543 24 203 1.6 4.8 0.00 0.00 0.00 26 1004.2
20260503201040 24 186 4.8 6.4 0.00 0.00 0.00 23 1003.8
20260503200536 24 191 3.2 4.8 0.00 0.00 0.00 24 1003.5
20260503200033 24 159 3.2 4.8 0.00 0.00 0.00 25 1003.5
20260503195530 24 171 3.2 3.2 0.00 0.00 0.00 25 1003.8
20260503195027 24 209 6.4 9.7 0.00 0.00 0.00 23 1003.8
20260503194525 24 254 4.8 6.4 0.00 0.00 0.00 23 1004.2
20260503194024 24 231 3.2 4.8 0.00 0.00 0.00 26 1003.8
20260503193521 24 262 6.4 6.4 0.00 0.00 0.00 24 1004.2
20260503193016 24 174 11.3 12.9 0.00 0.00 0.00 24 1003.5
20260503192512 24 211 6.4 6.4 0.00 0.00 0.00 24 1003.8
20260503192008 24 176 4.8 4.8 0.00 0.00 0.00 24 1003.8
20260503191506 24 218 8.0 12.9 0.00 0.00 0.00 24 1003.8
20260503191002 24 169 8.0 11.3 0.00 0.00 0.00 24 1003.8
20260503190459 25 195 8.0 12.9 0.00 0.00 0.00 25 1004.2
20260503185956 25 251 9.7 9.7 0.00 0.00 0.00 24 1004.2
20260503185452 25 248 8.0 11.3 0.00 0.00 0.00 24 1004.2
20260503184952 24 184 8.0 9.7 0.00 0.00 0.00 27 1004.2
20260503184449 24 133 9.7 12.9 0.00 0.00 0.00 24 1004.2
20260503183945 23 198 6.4 6.4 0.00 0.00 0.00 25 1004.2
20260503183442 23 224 1.6 3.2 0.00 0.00 0.00 25 1004.2
20260503182938 23 161 1.6 3.2 0.00 0.00 0.00 25 1004.5
20260503182437 23 242 3.2 3.2 0.00 0.00 0.00 25 1004.5
20260503181935 23 185 6.4 11.3 0.00 0.00 0.00 25 1004.5
20260503181432 23 191 4.8 4.8 0.00 0.00 0.00 28 1004.8
20260503180927 23 106 4.8 4.8 0.00 0.00 0.00 26 1004.5
20260503180427 23 158 1.6 3.2 0.00 0.00 0.00 26 1004.8
20260503175922 23 149 3.2 6.4 0.00 0.00 0.00 27 1004.8
20260503175421 23 199 4.8 4.8 0.00 0.00 0.00 26 1004.8
20260503174916 23 198 4.8 4.8 0.00 0.00 0.00 28 1004.8
20260503174415 23 141 6.4 9.7 0.00 0.00 0.00 26 1004.8
20260503173909 23 164 8.0 9.7 0.00 0.00 0.00 25 1004.8
20260503173406 23 206 3.2 3.2 0.00 0.00 0.00 26 1004.8
20260503172903 23 82 0.0 1.6 0.00 0.00 0.00 25 1004.8
20260503172400 23 180 4.8 4.8 0.00 0.00 0.00 26 1004.8
20260503171856 23 112 3.2 4.8 0.00 0.00 0.00 27 1004.8
20260503171353 23 149 1.6 3.2 0.00 0.00 0.00 27 1004.8
20260503170850 23 237 4.8 6.4 0.00 0.00 0.00 27 1005.6
20260503170346 22 188 1.6 1.6 0.00 0.00 0.00 28 1005.3
20260503150739 17 195 1.6 3.2 0.00 0.00 0.00 33 1006.3
20260503150235 17 173 4.8 4.8 0.00 0.00 0.00 33 1006.3
20260503140159 16 179 4.8 6.4 0.00 0.00 0.00 37 1006.6
20260503131129 13 354 3.2 4.8 0.00 0.00 0.00 42 1007.3
20260503130626 13 178 4.8 9.7 0.00 0.00 0.00 43 1007.0
20260503130124 13 147 3.2 6.4 0.00 0.00 0.00 43 1007.3
20260503110510 12 86 3.2 4.8 0.00 0.00 0.00 46 1007.3
20260503090402 12 175 1.6 1.6 0.00 0.00 0.00 44 1009.4
20260503081329 12 144 4.8 6.4 0.00 0.00 0.00 40 1009.8
20260503080825 12 180 4.8 4.8 0.00 0.00 0.00 41 1009.8
20260503080317 12 198 3.2 3.2 0.00 0.00 0.00 43 1009.8
20260503072753 12 186 4.8 4.8 0.00 0.00 0.00 37 1009.8
20260503072250 12 228 4.8 6.4 0.00 0.00 0.00 37 1009.8
20260503071746 12 186 4.8 6.4 0.00 0.00 0.00 38 1010.1
20260503071244 12 187 6.4 6.4 0.00 0.00 0.00 38 1010.5
20260503070740 12 190 6.4 6.4 0.00 0.00 0.00 37 1010.5
20260503070238 12 188 4.8 4.8 0.00 0.00 0.00 36 1010.5
20260503060157 12 202 4.8 4.8 0.00 0.00 0.00 37 1011.1
20260503054644 12 187 6.4 9.7 0.00 0.00 0.00 38 1010.8
20260503054141 12 174 6.4 9.7 0.00 0.00 0.00 38 1011.1
20260503053639 12 188 6.4 9.7 0.00 0.00 0.00 37 1011.1
20260503053138 11 177 8.0 9.7 0.00 0.00 0.00 38 1011.1
20260503052634 11 153 4.8 6.4 0.00 0.00 0.00 40 1011.1
20260503052130 11 188 4.8 4.8 0.00 0.00 0.00 41 1010.8
20260503051625 11 172 3.2 4.8 0.00 0.00 0.00 42 1011.1
20260503051124 11 187 3.2 4.8 0.00 0.00 0.00 43 1011.1
20260503050620 11 201 1.6 3.2 0.00 0.00 0.00 41 1011.5
20260503050116 11 199 3.2 4.8 0.00 0.00 0.00 43 1011.5
20260503045614 11 187 3.2 3.2 0.00 0.00 0.00 42 1011.5
20260503045111 11 189 1.6 3.2 0.00 0.00 0.00 42 1011.1
20260503044608 11 213 1.6 1.6 0.00 0.00 0.00 43 1011.1
20260503044105 12 210 3.2 3.2 0.00 0.00 0.00 41 1011.5
20260503043601 12 219 1.6 1.6 0.00 0.00 0.00 43 1011.5
20260503043058 12 203 3.2 3.2 0.00 0.00 0.00 42 1011.5
20260503042555 12 185 1.6 3.2 0.00 0.00 0.00 42 1011.1
20260503042051 12 204 3.2 4.8 0.00 0.00 0.00 41 1011.5
20260503041548 12 201 3.2 3.2 0.00 0.00 0.00 41 1011.1
20260503041046 12 212 1.6 1.6 0.00 0.00 0.00 41 1011.5
20260503040543 12 220 1.6 1.6 0.00 0.00 0.00 41 1011.5
20260503040040 12 206 1.6 1.6 0.00 0.00 0.00 41 1011.5
20260503035537 12 201 0.0 0.0 0.00 0.00 0.00 41 1011.8
20260503035035 12 212 1.6 3.2 0.00 0.00 0.00 40 1011.8
20260503034531 12 237 0.0 0.0 0.00 0.00 0.00 38 1011.8
20260503034029 13 226 0.0 0.0 0.00 0.00 0.00 38 1011.8
20260503033526 13 213 1.6 1.6 0.00 0.00 0.00 37 1011.8
20260503033023 13 215 0.0 1.6 0.00 0.00 0.00 37 1011.8
20260503032522 13 214 1.6 1.6 0.00 0.00 0.00 36 1012.2
20260503032019 13 222 1.6 1.6 0.00 0.00 0.00 37 1012.2
20260503031517 13 232 0.0 0.0 0.00 0.00 0.00 34 1012.2
20260503031014 13 185 3.2 3.2 0.00 0.00 0.00 34 1012.2
20260503030510 13 214 1.6 1.6 0.00 0.00 0.00 34 1012.2
20260503030008 13 212 1.6 1.6 0.00 0.00 0.00 34 1012.2
20260503025504 14 189 3.2 3.2 0.00 0.00 0.00 34 1012.5
20260503025002 14 209 3.2 3.2 0.00 0.00 0.00 33 1012.5
20260503024457 14 201 1.6 1.6 0.00 0.00 0.00 34 1012.5
20260503023955 14 229 1.6 1.6 0.00 0.00 0.00 32 1012.5
20260503023452 14 235 3.2 3.2 0.00 0.00 0.00 32 1012.2
20260503022949 14 214 1.6 1.6 0.00 0.00 0.00 32 1012.2
20260503022444 14 227 3.2 3.2 0.00 0.00 0.00 32 1012.2
20260503021940 14 218 1.6 1.6 0.00 0.00 0.00 31 1012.2
20260503021436 14 216 1.6 1.6 0.00 0.00 0.00 32 1012.2
20260503020934 15 205 1.6 1.6 0.00 0.00 0.00 32 1012.2
20260503020432 15 227 1.6 1.6 0.00 0.00 0.00 31 1012.2
20260503015928 15 212 1.6 3.2 0.00 0.00 0.00 31 1012.5
20260503015425 15 208 1.6 3.2 0.00 0.00 0.00 31 1012.2
20260503014920 15 199 3.2 3.2 0.00 0.00 0.00 32 1012.2
20260503014418 15 217 1.6 3.2 0.00 0.00 0.00 31 1012.2
20260503013916 15 207 3.2 3.2 0.00 0.00 0.00 32 1012.2
20260503013413 15 196 3.2 3.2 0.00 0.00 0.00 30 1012.2
20260503012910 15 190 1.6 3.2 0.00 0.00 0.00 29 1011.8
20260503012408 15 198 3.2 3.2 0.00 0.00 0.00 29 1011.8
20260503011904 15 194 3.2 4.8 0.00 0.00 0.00 29 1012.2
20260503011400 16 202 3.2 3.2 0.00 0.00 0.00 29 1012.2